Location: Newark
(34.0131°N, 4.3314°W)
Time: 12:42:46
(UTC+00:00)

Explorer 7 - Pass Details

Date: 15 October 2019
Orbit: 485 x 680 km, 50.3° (Epoch: 12 November)

Event Time Altitude Azimuth Distance (km) Brightness Sun altitude
Rises 17:56:38 0° 323° (NW) 2,644 10.7 -3.5°
Reaches altitude 10° 17:59:44 10° 350° (N) 1,794 9.5 -4.1°
Maximum altitude 18:01:56 14° 22° (NNE) 1,580 8.9 -4.6°
Drops below altitude 10° 18:04:12 10° 55° (NE) 1,855 9.0 -5.0°
Enters shadow 18:05:40 - 69° (ENE) 2,228 9.3 -5.3°
Sets 18:07:31 0° 81° (E) 2,802 - -5.7°
